Miscellaneous Local Product
Issued by NWS North Platte, NE

Home | Current Version | Previous Version | Graphics & Text | Print | Product List | Glossary On
Versions: 1 2 3 4 5 6 7 8 9 10 11 12 13 14 15 16 17 18 19 20 21 22 23 24 25 26 27 28 29 30 31 32 33 34 35 36 37 38 39 40 41 42 43 44 45 46 47 48 49 50
000
AXUS43 KLBF 030010
MISLBF


WESTERN AND NORTH CENTRAL NEBRASKA HOURLY WEATHER ROUNDUP
NATIONAL WEATHER SERVICE NORTH PLATTE NE
700 PM CDT SUN AUG 02 2015

***STATIONS NOT REPORTING VARIABLES SUCH AS SKY/WEATHER OR
PRESSURE ARE PROVIDED BY THE NEBRASKA DEPARTMENT OF
ROADS...RAWS...AND APRS NETWORKS...AND ARE NOT UNDER
NATIONAL WEATHER SERVICE QUALITY CONTROL***

...OBSERVATIONS IN AND NEAR THE EASTERN PANHANDLE OF NEBRASKA...

CITY           SKY/WX    TMP DP  RH WIND       PRES   REMARKS
PINE RIDGE     SUNNY     85  56  37 E13       29.96S
CHADRON        SUNNY     89  55  31 NE16      29.93S
ALLIANCE       MOSUNNY   90  51  26 NE3       29.97S
SIDNEY         PTSUNNY   89  47  23 CALM      30.01F
BIG SPRINGS      N/A     84  59  42 E18         N/A
$$

...OBSERVATIONS IN NORTH CENTRAL NEBRASKA...

CITY           SKY/WX    TMP DP  RH WIND       PRES   REMARKS
THEDFORD       MOSUNNY   91  58  32 E3        29.92F
AINSWORTH      SUNNY     83  64  50 E7        29.92S
O`NEILL        SUNNY     85  62  47 NE9       29.90S
ORD            PTSUNNY   78  61  55 SW9       29.89R
BROKEN BOW     PTSUNNY   83  51  33 S13G24    29.92F
SPRINGVIEW       N/A     85  64  48 E3          N/A
CHAMBERS         N/A     88  62  41 N3          N/A
EWING            N/A     84  69  61 NE3         N/A
$$

...OBSERVATIONS IN SOUTHWEST NEBRASKA AND FAR NORTHEAST COLORADO...

CITY           SKY/WX    TMP DP  RH WIND       PRES   REMARKS
WRAY           FAIR      93  46  19 S6        29.95S
HOLYOKE        FAIR      95  41  15 N3        29.96S HX  91
IMPERIAL       CLOUDY    85  55  35 E10G21    29.94R
OGALLALA       CLOUDY    82  55  39 CALM      29.95S
NORTH PLATTE   CLOUDY    79  62  56 CALM      29.90R
MCCOOK         LGT RAIN  81  54  39 N12       29.93R
LEXINGTON      CLOUDY    80  55  42 SE7       29.93F
PAXTON           N/A     79  60  52 CALM        N/A
BRADY            N/A     76  62  62 N5G12       N/A
CALLAWAY         N/A     78  64  62 SE6         N/A
$$

...NORTH PLATTE AREA...

CITY           SKY/WX    TMP DP  RH WIND       PRES   REMARKS
AIRPORT        CLOUDY    79  62  56 CALM      29.90R
DOWNTOWN         N/A     85  56  36 CALM        N/A
HILLCREST        N/A     86  53  32 S3          N/A
$$

...SOME WEATHER OBSERVATIONS FROM AROUND THE REGION...

CITY           SKY/WX    TMP DP  RH WIND       PRES   REMARKS
DENVER         CLOUDY    76  45  33 SW22G29   30.09S
LARAMIE        PTSUNNY   78  40  25 SE10      30.18S
CHEYENNE       PTSUNNY   84  43  23 SE8       30.11F
SCOTTSBLUFF    SUNNY     89  51  27 S12       29.96F
RAPID CITY     SUNNY     84  54  35 NE8       29.97F
PIERRE         SUNNY     85  49  28 N14       29.89S
WINNER         FAIR      87  58  37 NE7       29.91S
SIOUX FALLS    SUNNY     81  60  48 N12       29.85S
OMAHA          MOSUNNY   91  76  61 N8        29.77F HX 103
GRAND ISLAND   CLOUDY    84  67  56 NW14      29.88R
KANSAS CITY    PTSUNNY   86  74  67 SW7       29.82F HX  94
WICHITA        MOSUNNY   88  69  53 S12       29.87F HX  92
HAYS           SUNNY     93  63  36 S9        29.86F HX  94
LIBERAL        SUNNY     91  64  40 E9        29.89F HX  93
GOODLAND       MOSUNNY   92  47  21 SE5       29.94F
$$



USA.gov is the U.S. government's official web portal to all federal, state and local government web resources and services.